Tracking 31027 objects as of 19-Jul-2025
HD Live streaming from Space Station
objects crossing your sky now

THORAD AGENA D DEB

Track THORAD AGENA D DEB now!
10-day predictions


NORAD ID: 4993
Int'l Code: 1970-025HP
Perigee: 835.0 km
Apogee: 959.0 km
Inclination: 100.2 °
Period: 102.8 minutes
Semi major axis: 7268 km
RCS: 0.013 m2 (small)
Launch date: April 8, 1970
Source: United States (US)
Launch site: AIR FORCE WESTERN TEST RANGE (AFWTR)

Note: This is SATELLITE DEBRIS
Your satellite tracking list
FENGYUN 1C DEB
Track 1 satellite(s)




NASA's NSSDC Master Catalog

Two Line Element Set (TLE):
1 04993U 70025HP  25198.77056479  .00000630  00000-0  44080-3 0  9997
2 04993 100.1776 303.7315 0085311 162.8511 197.5563 14.01136289791887
Source of the keplerian elements: AFSPC